| time (UTC) | temp F | wind direction | speed MPH | gust MPH | rain 1hr in | rain 24hr in | rain mn in | humidity % | barometer mb |
| 20260507131622 | 68 | 53 | 0.0 | 9.0 | 0.00 | 0.00 | 0.00 | 60 | 1011.2 |
| 20260507130104 | 69 | 0 | 1.0 | 7.0 | 0.00 | 0.00 | 0.00 | 58 | 1011.2 |
| 20260507124601 | 70 | 0 | 0.0 | 13.0 | 0.00 | 0.00 | 0.00 | 55 | 1011.5 |
| 20260507123107 | 71 | 0 | 0.0 | 11.0 | 0.00 | 0.00 | 0.00 | 54 | 1011.5 |
| 20260507121609 | 71 | 0 | 0.0 | 9.0 | 0.00 | 0.00 | 0.00 | 53 | 1011.4 |
| 20260507120058 | 70 | 113 | 0.0 | 12.0 | 0.00 | 0.00 | 0.00 | 51 | 1011.2 |
| 20260507114602 | 70 | 0 | 3.0 | 14.0 | 0.00 | 0.00 | 0.00 | 51 | 1011.1 |
| 20260507113103 | 70 | 0 | 1.0 | 10.0 | 0.00 | 0.00 | 0.00 | 51 | 1011.2 |
| 20260507111601 | 70 | 111 | 1.0 | 10.0 | 0.00 | 0.00 | 0.00 | 49 | 1011.0 |
| 20260507110120 | 70 | 121 | 1.0 | 13.0 | 0.00 | 0.00 | 0.00 | 46 | 1011.1 |
| 20260507104559 | 70 | 42 | 1.0 | 14.0 | 0.00 | 0.00 | 0.00 | 45 | 1011.5 |
| 20260507103100 | 70 | 94 | 1.0 | 13.0 | 0.00 | 0.00 | 0.00 | 42 | 1011.5 |
| 20260507101602 | 70 | 202 | 4.0 | 18.0 | 0.00 | 0.00 | 0.00 | 40 | 1011.5 |
| 20260507100100 | 70 | 188 | 2.0 | 18.0 | 0.00 | 0.00 | 0.00 | 39 | 1011.6 |
| 20260507094619 | 70 | 131 | 2.0 | 15.0 | 0.00 | 0.00 | 0.00 | 39 | 1011.8 |
| 20260507093106 | 69 | 151 | 4.0 | 18.0 | 0.00 | 0.00 | 0.00 | 39 | 1011.8 |
| 20260507091641 | 68 | 78 | 6.0 | 17.0 | 0.00 | 0.00 | 0.00 | 39 | 1012.1 |
| 20260507090107 | 69 | 184 | 2.0 | 12.0 | 0.00 | 0.00 | 0.00 | 41 | 1012.1 |
| 20260507084559 | 69 | 97 | 1.0 | 10.0 | 0.00 | 0.00 | 0.00 | 42 | 1012.0 |
| 20260507083100 | 68 | 0 | 0.0 | 4.0 | 0.00 | 0.00 | 0.00 | 45 | 1012.3 |
| 20260507081606 | 68 | 0 | 0.0 | 4.0 | 0.00 | 0.00 | 0.00 | 47 | 1012.6 |
| 20260507080059 | 67 | 75 | 0.0 | 5.0 | 0.00 | 0.00 | 0.00 | 45 | 1012.5 |
| 20260507074600 | 67 | 96 | 1.0 | 10.0 | 0.00 | 0.00 | 0.00 | 41 | 1011.8 |
| 20260507073102 | 66 | 45 | 3.0 | 17.0 | 0.00 | 0.00 | 0.00 | 41 | 1011.5 |
| 20260507071602 | 65 | 167 | 2.0 | 22.0 | 0.00 | 0.00 | 0.00 | 41 | 1011.8 |
| 20260507070107 | 64 | 121 | 2.0 | 15.0 | 0.00 | 0.00 | 0.00 | 42 | 1012.1 |
| 20260507064601 | 64 | 0 | 3.0 | 12.0 | 0.00 | 0.00 | 0.00 | 43 | 1012.3 |
| 20260507063100 | 64 | 0 | 1.0 | 12.0 | 0.00 | 0.00 | 0.00 | 43 | 1012.6 |
| 20260507061601 | 64 | 0 | 1.0 | 10.0 | 0.00 | 0.00 | 0.00 | 43 | 1012.7 |
| 20260507060111 | 63 | 132 | 1.0 | 9.0 | 0.00 | 0.00 | 0.00 | 42 | 1012.8 |
| 20260507054601 | 62 | 182 | 2.0 | 13.0 | 0.00 | 0.00 | 0.00 | 45 | 1012.6 |
| 20260507053101 | 61 | 152 | 2.0 | 9.0 | 0.00 | 0.00 | 0.00 | 46 | 1012.5 |
| 20260507051603 | 60 | 144 | 2.0 | 13.0 | 0.00 | 0.00 | 0.00 | 46 | 1012.6 |
| 20260507050100 | 60 | 153 | 2.0 | 13.0 | 0.00 | 0.00 | 0.00 | 47 | 1012.3 |
| 20260507044602 | 60 | 186 | 2.0 | 13.0 | 0.00 | 0.00 | 0.00 | 46 | 1012.5 |
| 20260507043102 | 60 | 163 | 4.0 | 11.0 | 0.00 | 0.00 | 0.00 | 45 | 1012.5 |
| 20260507041601 | 60 | 98 | 2.0 | 10.0 | 0.00 | 0.00 | 0.00 | 44 | 1012.6 |
| 20260507040105 | 61 | 98 | 2.0 | 9.0 | 0.00 | 0.00 | 0.00 | 43 | 1012.8 |
| 20260507034605 | 61 | 93 | 2.0 | 16.0 | 0.00 | 0.00 | 0.00 | 42 | 1013.0 |
| 20260507033058 | 60 | 342 | 3.0 | 12.0 | 0.00 | 0.00 | 0.00 | 44 | 1012.7 |
| 20260507031600 | 59 | 206 | 1.0 | 16.0 | 0.00 | 0.00 | 0.00 | 48 | 1013.0 |
| 20260507030058 | 58 | 0 | 1.0 | 3.0 | 0.00 | 0.00 | 0.00 | 57 | 1013.2 |
| 20260507024604 | 57 | 0 | 0.0 | 5.0 | 0.00 | 0.00 | 0.00 | 64 | 1013.4 |
| 20260507023101 | 57 | 0 | 0.0 | 1.0 | 0.00 | 0.00 | 0.00 | 71 | 1013.4 |
| 20260507021602 | 58 | 0 | 0.0 | 1.0 | 0.00 | 0.00 | 0.00 | 72 | 1013.8 |
| 20260507020101 | 59 | 0 | 0.0 | 4.0 | 0.00 | 0.00 | 0.00 | 58 | 1013.9 |
| 20260507014601 | 59 | 0 | 0.0 | 4.0 | 0.00 | 0.00 | 0.00 | 55 | 1013.8 |
| 20260507013104 | 58 | 222 | 0.0 | 2.0 | 0.00 | 0.00 | 0.00 | 56 | 1013.4 |
| 20260507011601 | 57 | 0 | 0.0 | 0.0 | 0.00 | 0.00 | 0.00 | 62 | 1013.5 |
| 20260507010115 | 57 | 0 | 0.0 | 0.0 | 0.00 | 0.00 | 0.00 | 66 | 1013.8 |
| 20260507004601 | 57 | 0 | 0.0 | 2.0 | 0.00 | 0.00 | 0.00 | 69 | 1014.1 |
| 20260507003059 | 59 | 0 | 0.0 | 1.0 | 0.00 | 0.00 | 0.00 | 67 | 1014.1 |
| 20260507001603 | 60 | 0 | 0.0 | 2.0 | 0.00 | 0.00 | 0.00 | 55 | 1014.4 |
| 20260507000106 | 60 | 0 | 0.0 | 3.0 | 0.00 | 0.00 | 0.00 | 46 | 1014.5 |
| 20260506234618 | 60 | 126 | 0.0 | 3.0 | 0.00 | 0.00 | 0.00 | 49 | 1014.5 |
| 20260506233109 | 60 | 0 | 1.0 | 7.0 | 0.00 | 0.00 | 0.00 | 47 | 1014.4 |
| 20260506231602 | 60 | 0 | 1.0 | 7.0 | 0.00 | 0.00 | 0.00 | 48 | 1014.6 |
| 20260506230058 | 60 | 160 | 0.0 | 7.0 | 0.00 | 0.00 | 0.00 | 48 | 1015.0 |
| 20260506224558 | 61 | 0 | 1.0 | 7.0 | 0.00 | 0.00 | 0.00 | 47 | 1015.2 |
| 20260506223102 | 62 | 192 | 2.0 | 11.0 | 0.00 | 0.00 | 0.00 | 45 | 1015.1 |
| 20260506221612 | 62 | 131 | 3.0 | 11.0 | 0.00 | 0.00 | 0.00 | 43 | 1015.2 |
| 20260506220059 | 62 | 103 | 1.0 | 5.0 | 0.00 | 0.00 | 0.00 | 43 | 1015.2 |
| 20260506214609 | 63 | 113 | 1.0 | 5.0 | 0.00 | 0.00 | 0.00 | 46 | 1015.3 |
| 20260506213101 | 63 | 0 | 0.0 | 7.0 | 0.00 | 0.00 | 0.00 | 49 | 1015.4 |
| 20260506211601 | 63 | 0 | 0.0 | 3.0 | 0.00 | 0.00 | 0.00 | 51 | 1015.3 |
| 20260506204616 | 62 | 0 | 0.0 | 3.0 | 0.00 | 0.00 | 0.00 | 55 | 1015.1 |
| 20260506203102 | 63 | 0 | 0.0 | 9.0 | 0.00 | 0.00 | 0.00 | 54 | 1015.1 |
| 20260506201601 | 63 | 128 | 2.0 | 10.0 | 0.00 | 0.00 | 0.00 | 55 | 1014.9 |
| 20260506194601 | 63 | 126 | 1.0 | 9.0 | 0.00 | 0.00 | 0.00 | 57 | 1014.1 |
| 20260506193100 | 63 | 0 | 1.0 | 7.0 | 0.00 | 0.00 | 0.00 | 58 | 1014.7 |
| 20260506191559 | 63 | 318 | 3.0 | 16.0 | 0.00 | 0.00 | 0.00 | 61 | 1014.8 |
| 20260506190100 | 62 | 0 | 0.0 | 6.0 | 0.00 | 0.00 | 0.00 | 65 | 1013.9 |
| 20260506184600 | 63 | 0 | 0.0 | 9.0 | 0.00 | 0.00 | 0.00 | 67 | 1014.0 |
| 20260506183100 | 63 | 0 | 0.0 | 4.0 | 0.00 | 0.00 | 0.00 | 66 | 1013.9 |
| 20260506181559 | 64 | 0 | 0.0 | 1.0 | 0.00 | 0.00 | 0.00 | 63 | 1014.3 |
| 20260506180058 | 64 | 171 | 0.0 | 2.0 | 0.00 | 0.00 | 0.00 | 60 | 1014.6 |
| 20260506174608 | 64 | 160 | 0.0 | 5.0 | 0.00 | 0.00 | 0.00 | 59 | 1014.8 |
| 20260506173127 | 64 | 0 | 0.0 | 8.0 | 0.00 | 0.00 | 0.00 | 62 | 1014.7 |
| 20260506171601 | 64 | 0 | 0.0 | 5.0 | 0.00 | 0.00 | 0.00 | 61 | 1014.2 |
| 20260506170059 | 64 | 0 | 0.0 | 3.0 | 0.00 | 0.00 | 0.00 | 61 | 1014.4 |
| 20260506164602 | 64 | 0 | 0.0 | 1.0 | 0.00 | 0.00 | 0.00 | 61 | 1014.2 |
| 20260506163102 | 65 | 0 | 0.0 | 3.0 | 0.00 | 0.00 | 0.00 | 60 | 1014.5 |
| 20260506161611 | 65 | 0 | 0.0 | 2.0 | 0.00 | 0.00 | 0.00 | 55 | 1014.9 |
| 20260506160110 | 66 | 0 | 0.0 | 0.0 | 0.00 | 0.00 | 0.00 | 57 | 1015.4 |
| 20260506154603 | 66 | 0 | 0.0 | 0.0 | 0.00 | 0.00 | 0.00 | 54 | 1015.5 |
| 20260506153104 | 67 | 0 | 0.0 | 0.0 | 0.00 | 0.00 | 0.00 | 53 | 1015.6 |
| 20260506151601 | 67 | 0 | 0.0 | 0.0 | 0.00 | 0.00 | 0.00 | 54 | 1015.7 |
| 20260506150109 | 67 | 0 | 0.0 | 0.0 | 0.00 | 0.00 | 0.00 | 55 | 1015.8 |
| 20260506144612 | 67 | 0 | 0.0 | 0.0 | 0.00 | 0.00 | 0.00 | 56 | 1015.8 |
| 20260506143100 | 67 | 0 | 0.0 | 0.0 | 0.00 | 0.00 | 0.00 | 54 | 1015.7 |
| 20260506141600 | 66 | 0 | 0.0 | 0.0 | 0.00 | 0.00 | 0.00 | 60 | 1015.6 |
| 20260506140126 | 67 | 0 | 0.0 | 0.0 | 0.00 | 0.00 | 0.00 | 55 | 1015.6 |
| 20260506134600 | 68 | 0 | 0.0 | 0.0 | 0.00 | 0.00 | 0.00 | 58 | 1015.6 |
| 20260506133137 | 68 | 0 | 0.0 | 0.0 | 0.00 | 0.00 | 0.00 | 56 | 1015.8 |